H1 CPF 2 NER 2024 10 27 9 301 01 glonass106 H2 0705201 9106 32275 2024 10 27 0 0 0 2024 10 30 23 45 0 900 1 1 0 0 0 1 H9 10 0 60610 0.00000 0 -1894807.050 -15030458.954 -20519166.570 10 0 60610 900.00000 0 -845696.503 -17225983.511 -18792547.824 10 0 60610 1800.00000 0 -63130.632 -19280962.096 -16700891.309 10 0 60610 2700.00000 0 463809.793 -21129986.554 -14284859.837 10 0 60610 3600.00000 0 758163.670 -22713007.208 -11591407.137 10 0 60610 4500.00000 0 853875.666 -23977754.445 -8672864.510 10 0 60610 5400.00000 0 794119.378 -24881852.082 -5585923.245 10 0 60610 6300.00000 0 629229.312 -25394534.286 -2390532.594 10 0 60610 7200.00000 0 414329.881 -25497894.388 851265.125 10 0 60610 8100.00000 0 206762.351 -25187613.532 4076539.484 10 0 60610 9000.00000 0 63419.085 -24473138.900 7222693.340 10 0 60610 9900.00000 0 38098.273 -23377304.376 10228676.718 10 0 60610 10800.00000 0 178991.334 -21935409.806 13036169.496 10 0 60610 11700.00000 0 526409.466 -20193797.702 15590709.993 10 0 60610 12600.00000 0 1110845.628 -18207987.057 17842747.707 10 0 60610 13500.00000 0 1951454.055 -16040442.361 19748600.165 10 0 60610 14400.00000 0 3055011.831 -13758070.760 21271295.849 10 0 60610 15300.00000 0 4415406.865 -11429551.487 22381287.409 10 0 60610 16200.00000 0 6013674.657 -9122608.300 23057021.978 10 0 60610 17100.00000 0 7818583.425 -6901337.820 23285358.027 10 0 60610 18000.00000 0 9787744.407 -4823704.181 23061821.033 10 0 60610 18900.00000 0 11869202.335 -2939303.372 22390693.129 10 0 60610 19800.00000 0 14003441.141 -1287489.431 21284934.835 10 0 60610 20700.00000 0 16125722.549 104060.262 19765939.954 10 0 60610 21600.00000 0 18168661.168 1220281.557 17863127.758 10 0 60610 22500.00000 0 20064929.589 2059123.531 15613379.512 10 0 60610 23400.00000 0 21749981.078 2631395.755 13060329.461 10 0 60610 24300.00000 0 23164676.349 2960069.736 10253523.182 10 0 60610 25200.00000 0 24257704.423 3079064.398 7247458.998 10 0 60610 26100.00000 0 24987695.748 3031567.186 4100530.702 10 0 60610 27000.00000 0 25324938.393 2867962.182 873891.996 10 0 60610 27900.00000 0 25252624.536 2643453.381 -2369735.075 10 0 60610 28800.00000 0 24767574.160 2415484.416 -5567284.045 10 0 60610 29700.00000 0 23880404.891 2241064.802 -8656575.827 10 0 60610 30600.00000 0 22615140.351 2174116.913 -11577533.691 10 0 60610 31500.00000 0 21008273.179 2262956.999 -14273356.970 10 0 60610 32400.00000 0 19107321.967 2548017.921 -16691630.025 10 0 60610 33300.00000 0 16968942.732 3059910.901 -18785344.441 10 0 60610 34200.00000 0 14656674.246 3817909.099 -20513814.284 10 0 60610 35100.00000 0 12238411.819 4828917.873 -21843466.665 10 0 60610 36000.00000 0 9783715.259 6086975.916 -22748492.461 10 0 60610 36900.00000 0 7361063.499 7573308.931 -23211344.893 10 0 60610 37800.00000 0 5035170.187 9256934.325 -23223076.791 10 0 60610 38700.00000 0 2864471.713 11095792.147 -22783510.439 10 0 60610 39600.00000 0 898891.711 13038355.494 -21901237.135 10 0 60610 40500.00000 0 -822025.774 15025653.496 -20593446.775 10 0 60610 41400.00000 0 -2270537.792 16993622.785 -18885590.931 10 0 60610 42300.00000 0 -3431620.649 18875689.450 -16810886.007 10 0 60610 43200.00000 0 -4303347.846 20605473.890 -14409666.080 10 0 60610 44100.00000 0 -4896713.511 22119505.631 -11728597.832 10 0 60610 45000.00000 0 -5234910.213 23359834.639 -8819772.776 10 0 60610 45900.00000 0 -5352092.961 24276429.902 -5739694.320 10 0 60610 46800.00000 0 -5291682.706 24829264.809 -2548179.368 10 0 60610 47700.00000 0 -5104282.008 24990001.947 692804.046 10 0 60610 48600.00000 0 -4845291.790 24743206.674 3920340.326 10 0 60610 49500.00000 0 -4572330.632 24087038.623 7071787.502 10 0 60610 50400.00000 0 -4342566.237 23033392.163 10085992.068 10 0 60610 51300.00000 0 -4210072.304 21607480.022 12904473.771 10 0 60610 52200.00000 0 -4223322.748 19846877.461 15472557.399 10 0 60610 53100.00000 0 -4422929.342 17800066.999 17740429.716 10 0 60610 54000.00000 0 -4839718.401 15524544.330 19664101.461 10 0 60610 54900.00000 0 -5493227.828 13084564.199 21206256.203 10 0 60610 55800.00000 0 -6390688.183 10548619.787 22336970.206 10 0 60610 56700.00000 0 -7526531.151 7986759.943 23034289.930 10 0 60610 57600.00000 0 -8882446.850 5467855.118 23284656.525 10 0 60610 58500.00000 0 -10427988.564 3056924.815 23083169.422 10 0 60610 59400.00000 0 -12121700.762 812636.689 22433684.065 10 0 60610 60300.00000 0 -13912724.521 -1214919.700 21348741.760 10 0 60610 61200.00000 0 -15742814.488 -2986092.811 19849332.587 10 0 60610 62100.00000 0 -17548684.294 -4473086.138 17964495.331 10 0 60610 63000.00000 0 -19264583.332 -5660874.026 15730761.414 10 0 60610 63900.00000 0 -20824997.829 -6547578.688 13191452.716 10 0 60610 64800.00000 0 -22167363.477 -7144293.281 10395846.139 10 0 60610 65700.00000 0 -23234675.987 -7474358.978 7398220.414 10 0 60610 66600.00000 0 -23977889.697 -7572127.022 4256803.290 10 0 60610 67500.00000 0 -24358002.899 -7481258.429 1032639.407 10 0 60610 68400.00000 0 -24347741.459 -7252633.793 -2211598.985 10 0 60610 69300.00000 0 -23932768.988 -6941962.199 -5412834.847 10 0 60610 70200.00000 0 -23112371.777 -6607191.259 -8508818.285 10 0 60610 71100.00000 0 -21899588.868 -6305828.757 -11439342.893 10 0 60610 72000.00000 0 -20320781.130 -6092290.269 -14147422.010 10 0 60610 72900.00000 0 -18414657.024 -6015385.927 -16580401.381 10 0 60610 73800.00000 0 -16230795.619 -6116053.544 -18690986.071 10 0 60610 74700.00000 0 -13827728.686 -6425434.719 -20438161.398 10 0 60610 75600.00000 0 -11270662.096 -6963375.844 -21787989.980 10 0 60610 76500.00000 0 -8628931.716 -7737417.855 -22714269.615 10 0 60610 77400.00000 0 -5973299.916 -8742317.768 -23199039.584 10 0 60610 78300.00000 0 -3373205.193 -9960122.611 -23232926.007 10 0 60610 79200.00000 0 -894079.010 -11360793.075 -22815320.034 10 0 60610 80100.00000 0 1405158.982 -12903351.077 -21954385.810 10 0 60610 81000.00000 0 3474323.982 -14537503.517 -20666898.372 10 0 60610 81900.00000 0 5273815.783 -16205674.523 -18977914.801 10 0 60610 82800.00000 0 6776019.377 -17845361.309 -16920285.036 10 0 60610 83700.00000 0 7966199.390 -19391715.187 -14534011.820 10 0 60610 84600.00000 0 8842852.457 -20780239.736 -11865472.069 10 0 60610 85500.00000 0 9417504.320 -21949493.093 -8966514.707 10 0 60611 0.00000 0 9713961.641 -22843680.924 -5893452.703 10 0 60611 900.00000 0 9767051.554 -23415031.684 -2705967.235 10 0 60611 1800.00000 0 9620902.936 -23625853.136 534050.443 10 0 60611 2700.00000 0 9326843.515 -23450185.292 3763702.228 10 0 60611 3600.00000 0 8941002.032 -22874978.905 6920303.833 10 0 60611 4500.00000 0 8521717.625 -21900750.416 9942600.542 10 0 60611 5400.00000 0 8126866.345 -20541685.604 12771954.069 10 0 60611 6300.00000 0 7811218.039 -18825187.371 15353477.511 10 0 60611 7200.00000 0 7623935.372 -16790886.329 17637096.473 10 0 60611 8100.00000 0 7606320.571 -14489155.201 19578516.168 10 0 60611 9000.00000 0 7789904.935 -11979188.556 21140076.214 10 0 60611 9900.00000 0 8194961.640 -9326727.388 22291477.119 10 0 60611 10800.00000 0 8829504.620 -6601522.494 23010365.001 10 0 60611 11700.00000 0 9688815.998 -3874641.268 23282763.712 10 0 60611 12600.00000 0 10755522.496 -1215728.899 23103346.392 10 0 60611 13500.00000 0 12000218.467 1309663.319 22475541.325 10 0 60611 14400.00000 0 13382610.442 3642572.642 21411469.923 10 0 60611 15300.00000 0 14853136.327 5732839.802 19931717.680 10 0 60611 16200.00000 0 16354992.539 7540953.008 18064941.884 10 0 60611 17100.00000 0 17826485.141 9039445.070 15847322.924 10 0 60611 18000.00000 0 19203607.183 10213786.045 13321868.964 10 0 60611 18900.00000 0 20422734.640 11062734.722 10537586.684 10 0 60611 19800.00000 0 21423327.893 11598134.803 7548533.465 10 0 60611 20700.00000 0 22150525.012 11844164.834 4412769.038 10 0 60611 21600.00000 0 22557517.239 11836074.026 1191226.791 10 0 60611 22500.00000 0 22607605.885 11618457.836 -2053473.170 10 0 60611 23400.00000 0 22275853.052 11243146.784 -5258245.701 10 0 60611 24300.00000 0 21550255.594 10766798.512 -8360772.605 10 0 60611 25200.00000 0 20432391.851 10248295.740 -11300720.263 10 0 60611 26100.00000 0 18937513.004 9746061.097 -14020918.378 10 0 60611 27000.00000 0 17094074.398 9315403.283 -16468476.279 10 0 60611 27900.00000 0 14942725.920 9006007.587 -18595814.549 10 0 60611 28800.00000 0 12534803.309 8859677.515 -20361591.634 10 0 60611 29700.00000 0 9930383.248 8908423.460 -21731507.378 10 0 60611 30600.00000 0 7195983.275 9172979.443 -22678968.088 10 0 60611 31500.00000 0 4402002.303 9661810.757 -23185600.534 10 0 60611 32400.00000 0 1620008.119 10370654.483 -23241605.367 10 0 60611 33300.00000 0 -1080015.620 11282612.335 -22845943.589 10 0 60611 34200.00000 0 -3632348.863 12368792.082 -22006352.849 10 0 60611 35100.00000 0 -5978030.420 13589470.686 -20739193.598 10 0 60611 36000.00000 0 -8067066.113 14895730.481 -19069128.253 10 0 60611 36900.00000 0 -9860258.967 16231499.796 -17028639.658 10 0 60611 37800.00000 0 -11330586.433 17535912.487 -14657398.145 10 0 60611 38700.00000 0 -12464068.537 18745887.355 -12001489.366 10 0 60611 39600.00000 0 -13260092.101 19798819.109 -9112517.773 10 0 60611 40500.00000 0 -13731178.922 20635267.739 -6046603.130 10 0 60611 41400.00000 0 -13902209.085 21201533.118 -2863289.509 10 0 60611 42300.00000 0 -13809133.393 21452006.354 375611.870 10 0 60611 43200.00000 0 -13497230.340 21351198.767 3607223.298 10 0 60611 44100.00000 0 -13018982.138 20875362.870 6768821.203 10 0 60611 45000.00000 0 -12431660.216 20013636.899 9799052.785 10 0 60611 45900.00000 0 -11794722.714 18768664.466 12639124.881 10 0 60611 46800.00000 0 -11167134.166 17156662.900 15233942.023 10 0 60611 47700.00000 0 -10604720.681 15206936.989 17533171.689 10 0 60611 48600.00000 0 -10157672.131 12960857.896 19492216.454 10 0 60611 49500.00000 0 -9868296.512 10470349.248 21073074.642 10 0 60611 50400.00000 0 -9769120.875 7795942.792 22245073.404 10 0 60611 51300.00000 0 -9881418.619 5004483.693 22985460.555 10 0 60611 52200.00000 0 -10214225.028 2166579.907 23279844.310 10 0 60611 53100.00000 0 -10763882.610 -646099.463 23122472.724 10 0 60611 54000.00000 0 -11514135.680 -3363565.731 22516347.611 10 0 60611 54900.00000 0 -12436770.867 -5920179.464 21473170.651 10 0 60611 55800.00000 0 -13492777.390 -8257136.744 20013122.338 10 0 60611 56700.00000 0 -14633979.325 -10324670.495 18164477.466 10 0 60611 57600.00000 0 -15805072.209 -12083876.159 15963063.835 10 0 60611 58500.00000 0 -16945979.191 -13508086.277 13451573.815 10 0 60611 59400.00000 0 -17994428.272 -14583737.199 10678741.314 10 0 60611 60300.00000 0 -18888642.485 -15310692.169 7698399.433 10 0 60611 61200.00000 0 -19570029.677 -15702007.683 4568436.645 10 0 60611 62100.00000 0 -19985758.177 -15783153.385 1349671.643 10 0 60611 63000.00000 0 -20091109.042 -15590718.873 -1895331.214 10 0 60611 63900.00000 0 -19851504.706 -15170662.498 -5103482.332 10 0 60611 64800.00000 0 -19244127.394 -14576176.765 -8212398.878 10 0 60611 65700.00000 0 -18259057.853 -13865261.278 -11161623.619 10 0 60611 66600.00000 0 -16899885.305 -13098106.611 -13893806.088 10 0 60611 67500.00000 0 -15183761.882 -12334400.499 -16355822.435 10 0 60611 68400.00000 0 -13140898.355 -11630670.912 -18499811.674 10 0 60611 69300.00000 0 -10813521.577 -11037778.857 -20284107.850 10 0 60611 70200.00000 0 -8254336.731 -10598667.186 -21674049.984 10 0 60611 71100.00000 0 -5524558.169 -10346460.616 -22642654.240 10 0 60611 72000.00000 0 -2691590.684 -10302997.124 -23171135.585 10 0 60611 72900.00000 0 173542.574 -10477852.501 -23249269.281 10 0 60611 73800.00000 0 2998918.892 -10867898.968 -22875585.674 10 0 60611 74700.00000 0 5714468.935 -11457416.188 -22057394.894 10 0 60611 75600.00000 0 8254649.990 -12218749.830 -20810641.346 10 0 60611 76500.00000 0 10560929.166 -13113489.773 -19159590.941 10 0 60611 77400.00000 0 12583974.140 -14094118.312 -17136357.269 10 0 60611 78300.00000 0 14285461.259 -15106058.892 -14780275.797 10 0 60611 79200.00000 0 15639426.828 -16090039.152 -12137138.188 10 0 60611 80100.00000 0 16633106.372 -16984668.685 -9258301.466 10 0 60611 81000.00000 0 17267228.120 -17729122.880 -6199689.311 10 0 60611 81900.00000 0 17555749.737 -18265819.643 -3020704.833 10 0 60611 82800.00000 0 17525050.668 -18542975.979 216923.862 10 0 60611 83700.00000 0 17212615.266 -18516936.465 3450342.778 10 0 60611 84600.00000 0 16665263.207 -18154175.174 6616792.238 10 0 60611 85500.00000 0 15937002.675 -17432886.377 9654824.289 10 0 60612 0.00000 0 15086597.557 -16344096.748 12505493.265 10 0 60612 900.00000 0 14174951.209 -14892251.189 15113497.888 10 0 60612 1800.00000 0 13262418.433 -13095248.601 17428249.075 10 0 60612 2700.00000 0 12406157.424 -10983923.489 19404848.157 10 0 60612 3600.00000 0 11657634.081 -8600995.625 21004953.149 10 0 60612 4500.00000 0 11060382.964 -5999530.205 22197518.401 10 0 60612 5400.00000 0 10648118.746 -3240971.707 22959393.611 10 0 60612 6300.00000 0 10443277.145 -392832.138 23275771.170 10 0 60612 7200.00000 0 10456046.415 2473871.433 23140473.542 10 0 60612 8100.00000 0 10683929.989 5287324.824 22556075.286 10 0 60612 9000.00000 0 11111858.746 7977658.991 21533857.311 10 0 60612 9900.00000 0 11712848.575 10479613.778 20093593.865 10 0 60612 10800.00000 0 12449176.096 12735013.504 18263175.830 10 0 60612 11700.00000 0 13274023.756 14694952.286 16078076.838 10 0 60612 12600.00000 0 14133525.709 16321598.727 13580671.733 10 0 60612 13500.00000 0 14969128.874 17589545.195 10819419.780 10 0 60612 14400.00000 0 15720170.006 18486645.731 7847927.766 10 0 60612 15300.00000 0 16326560.135 19014307.768 4723910.741 10 0 60612 16200.00000 0 16731462.841 19187225.758 1508070.396 10 0 60612 17100.00000 0 16883852.660 19032568.258 -1737087.033 10 0 60612 18000.00000 0 16740844.738 18588653.132 -4948469.920 10 0 60612 18900.00000 0 16269696.223 17903167.244 -8063633.168 10 0 60612 19800.00000 0 15449393.721 17031006.422 -11021998.200 10 0 60612 20700.00000 0 14271758.571 16031827.573 -13766036.494 10 0 60612 21600.00000 0 12742022.145 14967417.029 -16242392.952 10 0 60612 22500.00000 0 10878845.836 13898986.885 -18402926.760 10 0 60612 23400.00000 0 8713783.896 12884513.998 -20205649.133 10 0 60612 24300.00000 0 6290210.810 11976234.233 -21615539.690 10 0 60612 25200.00000 0 3661757.365 11218397.731 -22605225.733 10 0 60612 26100.00000 0 890320.153 10645379.692 -23155511.567 10 0 60612 27000.00000 0 -1956272.989 10280225.940 -23255748.036 10 0 60612 27900.00000 0 -4806844.955 10133694.010 -22904035.565 10 0 60612 28800.00000 0 -7589591.778 10203829.605 -22107257.207 10 0 60612 29700.00000 0 -10234832.901 10476095.635 -20880941.387 10 0 60612 30600.00000 0 -12677675.621 10924047.884 -19248957.191 10 0 60612 31500.00000 0 -14860483.622 11510528.366 -17243048.209 10 0 60612 32400.00000 0 -16735047.698 12189325.724 -14902213.923 10 0 60612 33300.00000 0 -18264369.194 12907232.404 -12271950.536 10 0 60612 34200.00000 0 -19423982.730 13606411.607 -9403365.894 10 0 60612 35100.00000 0 -20202764.069 14226973.970 -6352185.606 10 0 60612 36000.00000 0 -20603190.421 14709655.031 -3177669.652 10 0 60612 36900.00000 0 -20641043.432 14998480.209 58539.329 10 0 60612 37800.00000 0 -20344568.444 15043304.545 3293613.537 10 0 60612 38700.00000 0 -19753126.410 14802119.673 6464759.821 10 0 60612 39600.00000 0 -18915396.079 14243030.328 9510437.836 10 0 60612 40500.00000 0 -17887202.887 13345816.634 12371552.749 10 0 60612 41400.00000 0 -16729066.459 12103015.844 14992599.339 10 0 60612 42300.00000 0 -15503570.261 10520477.429 17322735.360 10 0 60612 43200.00000 0 -14272664.109 8617367.474 19316763.678 10 0 60612 44100.00000 0 -13095012.767 6425621.271 20936004.596 10 0 60612 45000.00000 0 -12023501.686 3988866.024 22149042.006 10 0 60612 45900.00000 0 -11103004.094 1360857.436 22932329.513 10 0 60612 46800.00000 0 -10368502.583 -1396505.923 23270645.340 10 0 60612 47700.00000 0 -9843643.444 -4215509.168 23157387.593 10 0 60612 48600.00000 0 -9539783.936 -7025193.204 22594704.370 10 0 60612 49500.00000 0 -9455572.155 -9754066.846 21593456.129 10 0 60612 50400.00000 0 -9577077.043 -12332847.470 20173010.710 10 0 60612 51300.00000 0 -9878463.132 -14697117.366 18360874.428 10 0 60612 52200.00000 0 -10323181.945 -16789786.183 16192165.613 10 0 60612 53100.00000 0 -10865630.212 -18563257.567 13708939.995 10 0 60612 54000.00000 0 -11453205.416 -19981210.088 10959380.192 10 0 60612 54900.00000 0 -12028672.219 -21019918.355 7996864.314 10 0 60612 55800.00000 0 -12532739.936 -21669059.187 4878931.320 10 0 60612 56700.00000 0 -12906741.954 -21931969.141 1666162.985 10 0 60612 57600.00000 0 -13095303.393 -21825342.752 -1578995.690 10 0 60612 58500.00000 0 -13048883.389 -21378384.351 -4793454.319 10 0 60612 59400.00000 0 -12726083.550 -20631449.524 -7914708.926 10 0 60612 60300.00000 0 -12095623.781 -19634233.915 -10882063.043 10 0 60612 61200.00000 0 -11137900.795 -18443586.297 -13637813.531 10 0 60612 62100.00000 0 -9846062.206 -17121038.738 -16128377.392 10 0 60612 63000.00000 0 -8226549.740 -15730158.624 -18305337.127 10 0 60612 63900.00000 0 -6299087.531 -14333834.623 -20126383.955 10 0 60612 64800.00000 0 -4096114.989 -12991611.283 -21556140.493 10 0 60612 65700.00000 0 -1661687.064 -11757184.571 -22566847.079 10 0 60612 66600.00000 0 950112.846 -10676163.595 -23138898.691 10 0 60612 67500.00000 0 3677181.793 -9784192.245 -23261222.509 10 0 60612 68400.00000 0 6451744.860 -9105509.078 -22931489.247 10 0 60612 69300.00000 0 9202944.243 -8652005.232 -22156154.572 10 0 60612 70200.00000 0 11859562.671 -8422819.064 -20950330.171 10 0 60612 71100.00000 0 14352768.490 -8404483.683 -19337487.117 10 0 60612 72000.00000 0 16618768.786 -8571620.281 -17348997.420 10 0 60612 72900.00000 0 18601260.773 -8888147.320 -15023522.588 10 0 60612 73800.00000 0 20253580.057 -9308953.930 -12406260.984 10 0 60612 74700.00000 0 21540456.898 -9781966.393 -9548068.495 10 0 60612 75600.00000 0 22439307.965 -10250520.029 -6504469.518 10 0 60612 76500.00000 0 22941010.449 -10655935.924 -3334577.463 10 0 60612 77400.00000 0 23050127.030 -10940193.290 -99945.869 10 0 60612 78300.00000 0 22784573.173 -11048584.145 3136627.375 10 0 60612 79200.00000 0 22174741.666 -10932237.856 6312319.286 10 0 60612 80100.00000 0 21262121.981 -10550408.477 9365500.569 10 0 60612 81000.00000 0 20097473.218 -9872427.927 12236930.113 10 0 60612 81900.00000 0 18738627.966 -8879242.149 14870902.002 10 0 60612 82800.00000 0 17248019.698 -7564464.962 17216322.855 10 0 60612 83700.00000 0 15690037.687 -5934904.561 19227698.889 10 0 60612 84600.00000 0 14128320.307 -4010539.690 20866014.054 10 0 60612 85500.00000 0 12623099.919 -1823945.469 22099482.692 10 0 60613 0.00000 0 11228710.188 580808.096 22904162.741 10 0 60613 900.00000 0 9991358.857 3149741.590 23264418.468 10 0 60613 1800.00000 0 8947260.352 5820967.737 23173223.211 10 0 60613 2700.00000 0 8121203.196 8527031.390 22632297.922 10 0 60613 3600.00000 0 7525613.483 11197488.944 21652081.582 10 0 60613 4500.00000 0 7160152.422 13761622.403 20251534.299 10 0 60613 5400.00000 0 7011864.592 16151176.198 18457776.220 10 0 60613 6300.00000 0 7055870.562 18303003.789 16305568.548 10 0 60613 7200.00000 0 7256574.716 20161514.439 13836645.869 10 0 60613 8100.00000 0 7569337.488 21680818.547 11098911.943 10 0 60613 9000.00000 0 7942541.544 22826482.117 8145513.834 10 0 60613 9900.00000 0 8319964.644 23576816.943 5033811.894 10 0 60613 10800.00000 0 8643358.710 23923652.390 1824265.375 10 0 60613 11700.00000 0 8855125.562 23872556.258 -1420744.637 10 0 60613 12600.00000 0 8900975.438 23442495.399 -4638131.645 10 0 60613 13500.00000 0 8732454.893 22664950.448 -7765335.371 10 0 60613 14400.00000 0 8309236.000 21582522.102 -10741543.863 10 0 60613 15300.00000 0 7601068.851 20247088.028 -13508881.570 10 0 60613 16200.00000 0 6589313.587 18717588.449 -16013539.562 10 0 60613 17100.00000 0 5267986.031 17057534.108 -18206825.375 10 0 60613 18000.00000 0 3644271.674 15332341.996 -20046111.718 10 0 60613 18900.00000 0 1738485.255 13606611.182 -21495665.495 10 0 60613 19800.00000 0 -416523.397 11941453.379 -22527341.172 10 0 60613 20700.00000 0 -2776493.244 10391990.286 -23121125.301 10 0 60613 21600.00000 0 -5287359.482 9005122.320 -23265522.082 10 0 60613 22500.00000 0 -7887278.145 7817661.742 -22957772.934 10 0 60613 23400.00000 0 -10508984.068 6854907.604 -22203906.245 10 0 60613 24300.00000 0 -13082384.579 6129721.271 -21018616.698 10 0 60613 25200.00000 0 -15537281.499 5642140.137 -19424976.700 10 0 60613 26100.00000 0 -17806108.583 5379544.634 -17453985.645 10 0 60613 27000.00000 0 -19826570.962 5317370.332 -15143965.684 10 0 60613 27900.00000 0 -21544077.069 5420334.139 -12539815.675 10 0 60613 28800.00000 0 -22913862.138 5644121.990 -9692137.656 10 0 60613 29700.00000 0 -23902715.144 5937466.076 -6656252.753 10 0 60613 30600.00000 0 -24490237.589 6244523.194 -3491125.621 10 0 60613 31500.00000 0 -24669582.053 6507453.200 -258218.405 10 0 60613 32400.00000 0 -24447640.246 6669088.068 2979703.319 10 0 60613 33300.00000 0 -23844673.352 6675578.268 6159789.250 10 0 60613 34200.00000 0 -22893400.846 6478904.204 9220323.751 10 0 60613 35100.00000 0 -21637586.624 6039146.184 12101922.118 10 0 60613 36000.00000 0 -20130182.288 5326416.644 14748680.450 10 0 60613 36900.00000 0 -18431105.838 4322372.661 17109256.889 10 0 60613 37800.00000 0 -16604749.024 3021244.426 19137863.547 10 0 60613 38700.00000 0 -14717317.733 1430335.682 20795150.336 10 0 60613 39600.00000 0 -12834116.444 -430025.796 22048964.085 10 0 60613 40500.00000 0 -11016889.822 -2527086.738 22874968.850 10 0 60613 41400.00000 0 -9321331.864 -4816792.176 23257115.955 10 0 60613 42300.00000 0 -7794865.894 -7245389.002 23187955.055 10 0 60613 43200.00000 0 -6474787.297 -9751443.881 22668780.448 10 0 60613 44100.00000 0 -5386845.724 -12268192.978 21709609.746 10 0 60613 45000.00000 0 -4544325.348 -14726126.975 20328995.030 10 0 60613 45900.00000 0 -3947660.991 -17055705.024 18553669.617 10 0 60613 46800.00000 0 -3584605.718 -19190085.552 16418036.534 10 0 60613 47700.00000 0 -3430942.530 -21067760.771 13963507.816 10 0 60613 48600.00000 0 -3451709.959 -22634985.387 11237706.629 10 0 60613 49500.00000 0 -3602889.772 -23847898.146 8293546.959 10 0 60613 50400.00000 0 -3833485.363 -24674247.348 5188208.265 10 0 60613 51300.00000 0 -4087902.747 -25094647.728 1982024.763 10 0 60613 52200.00000 0 -4308533.006 -25103315.679 -1262689.050 10 0 60613 53100.00000 0 -4438426.284 -24708251.535 -4482853.423 10 0 60613 54000.00000 0 -4423943.258 -23930861.074 -7615854.744 10 0 60613 54900.00000 0 -4217270.860 -22805032.012 -10600768.667 10 0 60613 55800.00000 0 -3778694.628 -21375704.439 -13379550.365 10 0 60613 56700.00000 0 -3078530.409 -19696995.552 -15898168.077 10 0 60613 57600.00000 0 -2098632.581 -17829957.846 -18107657.374 10 0 60613 58500.00000 0 -833413.986 -15840065.357 -19965075.229 10 0 60613 59400.00000 0 709666.486 -13794533.774 -21434335.273 10 0 60613 60300.00000 0 2510170.216 -11759587.032 -22486908.134 10 0 60613 61200.00000 0 4535297.220 -9797784.903 -23102373.498 10 0 60613 62100.00000 0 6741031.495 -7965523.235 -23268813.655 10 0 60613 63000.00000 0 9073766.234 -6310810.875 -22983041.314 10 0 60613 63900.00000 0 11472341.659 -4871415.512 -22250657.707 10 0 60613 64800.00000 0 13870411.069 -3673454.954 -21085940.212 10 0 60613 65700.00000 0 16199036.964 -2730491.586 -19511561.865 10 0 60613 66600.00000 0 18389409.467 -2043166.624 -17558148.327 10 0 60613 67500.00000 0 20375574.097 -1599388.121 -15263680.870 10 0 60613 68400.00000 0 22097055.499 -1375063.471 -12672756.874 10 0 60613 69300.00000 0 23501267.904 -1335344.370 -9835722.118 10 0 60613 70200.00000 0 24545611.942 -1436330.643 -6807691.632 10 0 60613 71100.00000 0 25199170.478 -1627160.102 -3647478.115 10 0 60613 72000.00000 0 25443932.811 -1852395.362 -416448.844 10 0 60613 72900.00000 0 25275496.338 -2054606.063 2822666.540 10 0 60613 73800.00000 0 24703216.724 -2177036.774 6006994.057 10 0 60613 74700.00000 0 23749800.659 -2166247.275 9074735.252 10 0 60613 75600.00000 0 22450358.717 -1974613.221 11966365.115 10 0 60613 76500.00000 0 20850958.356 -1562581.130 14625784.731 10 0 60613 77400.00000 0 19006737.937 -900582.133 17001406.363 10 0 60613 78300.00000 0 16979660.844 29476.678 19047150.203 10 0 60613 79200.00000 0 14836003.522 1233206.662 20723333.904 10 0 60613 80100.00000 0 12643682.180 2703260.836 21997438.139 10 0 60613 81000.00000 0 10469529.256 4419406.777 22844733.982 10 0 60613 81900.00000 0 8376632.592 6349147.332 23248760.490 10 0 60613 82800.00000 0 6421847.480 8448864.420 23201643.655 10 0 60613 83700.00000 0 4653584.351 10665439.596 22704250.810 10 0 60613 84600.00000 0 3109963.445 12938285.167 21766177.459 10 0 60613 85500.00000 0 1817412.504 15201702.575 20405566.520 99